Location: ????
(30.1475°N, 31.1342°E)
Time: 10:19:15
(UTC+00:00)

COSMOS 2251 DEB - Pass Details

Date: 02 June 2024
Orbit: 760 x 785 km, 73.9° (Epoch: 19 June)

Event Time Altitude Azimuth Distance (km) Brightness Sun altitude
Rises 02:09:39 0° 341° (NNW) 3,248 ? -9.2°
Reaches altitude 10° 02:12:02 10° 340° (NNW) 2,314 ? -8.8°
Maximum altitude 02:17:17 76° 256° (WSW) 790 ? -7.8°
Drops below altitude 10° 02:22:28 10° 171° (S) 2,287 ? -6.9°
Sets 02:24:49 0° 169° (S) 3,207 ? -6.4°
